User: anonymous   Login
Location: Unspecified
(0.0000°N, 0.0000°E)
Time: 18:44:46
(UTC+00:00)
Language:

M3MSAT - Orbit

View from above orbital plane
View from above orbital plane
View from above satellite
View from above satellite

Ground track
Ground track

The orbit data is extracted from the following two-line orbital elements,

1 41605U 16040G   17145.19091436 +.00000733 +00000-0 +37115-4 0  9992
2 41605 097.4639 207.7371 0013340 151.1537 209.0438 15.20062715051187
Epoch (UTC): 25 May 2017 04:34:55
Eccentricity: 0.0013340
inclination: 97.4639°
perigee height: 496 km
apogee height: 515 km
right ascension of ascending node: 207.7371°
argument of perigee: 151.1537°
revolutions per day: 15.20062715
mean anomaly at epoch: 209.0438°
orbit number at epoch: 5118

The dashed part of the orbit path shows where the satellite is in the earth's shadow,  

DLR